CZ-4 DEB, 26127

Orbit data source: Space-Track

CZ-4 DEB, 26127 is space debris in SSO originally from a launch on Thu, 14 Oct 1999 UTC launched from the Taiyaun Space Center, China (TSC). Debris objects in space refer to the collection of defunct objects orbiting the Earth. Examples of debris include non-operational satellites, rocket bodies, and fragments generated from explosions, collisions, or faulty payload assembly.

Loading next visibility...
Identifier
26127, 1999-057P
Orbit
SSO
Country
Flag of CNCN / PRC
Related business
Manufacturer
Unknown
Mission
Spacecraft
Bus & Motor
Unknown
Mass
Unknown
Launch date (UTC)
1999-10-14 (26 years ago)
Launch vehicle
Unknown
Launch site
Taiyaun Space Center, China (TSC)
Object type
Payload
Rocket body
Debris
Shape & HBR
Unknown shape, 0.1 m
Radar Cross Section
Small (<0.1 m²)

Expand to show TLE details & history
Last TLE update: 5 hours ago

TLE from 5 hours ago
0 CZ-4 DEB
1 26127U 99057P   25300.97592848  .00025676  00000-0  29041-2 0  9994
2 26127  98.4313  95.1488 0062367 128.0794 355.8844 14.85013107350148
Epoch: 2025-10-27T23:25Z
TLE epoch observation values (Epoch: 2025-10-27T23:25:20.220Z)
Latitude
55.28163°
Longitude
-100.47202°
Altitude
579.214 km
Speed
7.6 km/s
True Right ascension
19h 09m 43s
True Declination
55° 06' 59"
Sunlit
Object was in daylight at epoch
Visualization orbit readout
Latitude
Unknown
Longitude
Unknown
Altitude
Unknown
Speed
Unknown
Apparent Right ascension
Unknown
Apparent Declination
Unknown
Sunlit
N/A
Visualization observer readout
Local Sidereal Time
00:21:14
Azimuth
Unknown
Elevation
Unknown
Doppler factor
Unknown
Orbital elements
Apogee altitude
654.19 km
Perigee altitude
567.017 km
Semi-major axis
6,988.74 km
Eccentricity
0.00624
Inclination
98.4313°
RAAN
95.1488°
Arg. of periapsis
128.0794°
True anomaly
355.83271°
Mean anomaly
355.8844°
Eccentric anomaly
355.85859°
Mean motion
3.71488 °/min
Orbital period
96.91 mins
BSTAR
0.0029041
Loading maneuver chart data...
Computing Atmospheric mass density...
Loading historical data...
Loading historical data...
Loading historical data...
Loading historical data...
Loading historical data...
Loading historical data...
Loading historical data...

Documentation

Showing up to 5 results
|